CDT,Max TemperatureF,Mean TemperatureF,Min TemperatureF,Max Dew PointF,MeanDew PointF,Min DewpointF,Max Humidity, Mean Humidity, Min Humidity, Max Sea Level PressureIn, Mean Sea Level PressureIn, Min Sea Level PressureIn, Max VisibilityMiles, Mean VisibilityMiles, Min VisibilityMiles, Max Wind SpeedMPH, Mean Wind SpeedMPH, Max Gust SpeedMPH,PrecipitationIn, CloudCover, Events, WindDirDegrees
2013-3-1,51,42,32,30,29,27,93,66,38,30.30,30.24,30.20,10,10,10,15,8,22,0.00,2,,328
2013-3-2,53,40,28,28,23,19,80,58,28,30.42,30.32,30.24,10,10,10,17,9,21,0.00,0,,332
2013-3-3,68,50,32,37,30,25,87,50,26,30.22,30.01,29.76,10,10,10,22,10,30,0.00,0,,173
2013-3-4,82,68,51,43,40,32,67,43,16,29.85,29.66,29.58,10,10,5,29,17,40,0.00,0,,240
2013-3-5,55,48,41,41,25,18,76,45,25,30.38,30.25,29.88,10,10,10,30,18,47,0.00,0,,331
2013-3-6,60,46,32,27,23,18,75,46,20,30.47,30.34,30.22,10,10,7,10,6,,0.00,0,,40
2013-3-7,69,51,33,34,29,23,75,47,20,30.25,30.18,30.10,10,10,10,21,8,25,0.00,0,,144
2013-3-8,60,55,50,50,42,34,72,60,47,30.21,30.11,29.99,10,10,10,17,10,21,0.00,6,,142
2013-3-9,64,60,55,63,56,46,100,87,59,29.99,29.83,29.67,10,8,2,21,11,26,0.65,8,Rain-Thunderstorm,159
2013-3-10,55,45,35,54,38,30,100,74,61,30.09,29.91,29.72,10,10,4,22,10,30,0.33,6,Rain-Thunderstorm,304
2013-3-11,57,44,32,32,26,16,93,60,21,30.10,30.05,30.00,10,10,10,14,7,20,0.00,0,,307
2013-3-12,64,48,33,37,30,23,87,53,25,30.33,30.19,30.04,10,10,5,13,4,24,0.00,0,,30
2013-3-13,66,50,35,37,32,27,87,53,26,30.49,30.39,30.33,10,10,7,9,5,,0.00,0,,95
2013-3-14,77,59,41,46,39,34,76,52,28,30.36,30.27,30.17,10,10,10,22,8,30,0.00,0,,184
2013-3-15,80,65,50,52,47,41,88,54,24,30.17,30.02,29.86,10,10,10,23,12,30,0.00,0,,202
2013-3-16,80,68,55,55,52,43,88,58,39,29.86,29.79,29.71,10,10,10,21,13,25,0.00,0,,183
2013-3-17,66,57,48,59,48,43,83,71,52,29.79,29.75,29.70,10,10,5,17,9,24,0.00,5,,303
2013-3-18,64,53,42,45,41,36,100,69,37,30.04,29.86,29.66,10,9,5,21,9,25,0.00,1,,25
2013-3-19,62,50,37,41,35,30,93,57,30,30.15,30.08,30.00,10,10,10,15,7,22,0.00,0,,74
2013-3-20,64,52,39,37,32,27,75,49,24,30.34,30.21,30.06,10,10,7,10,8,16,0.00,0,,32
2013-3-21,59,50,42,43,36,30,87,60,47,30.05,29.82,29.63,10,10,4,22,11,28,0.05,4,Rain-Thunderstorm,122
2013-3-22,46,44,41,43,41,37,100,91,71,29.88,29.78,29.65,10,7,2,18,13,22,0.00,8,,37
2013-3-23,50,47,44,46,44,43,100,95,87,29.89,29.79,29.69,10,7,1,22,8,30,0.36,8,Rain-Thunderstorm,41
2013-3-24,50,42,35,43,29,19,93,62,32,30.20,30.03,29.85,10,10,4,28,17,36,0.00,5,Rain,325
2013-3-25,50,40,30,25,19,14,75,47,24,30.40,30.31,30.20,10,10,10,20,10,28,0.00,0,,323
2013-3-26,55,42,28,28,21,18,74,49,25,30.50,30.40,30.32,10,10,10,8,5,,0.00,0,,301
2013-3-27,68,50,33,37,32,27,81,52,26,30.32,30.22,30.10,10,10,10,28,10,31,0.00,0,,166
2013-3-28,71,58,44,54,48,36,93,66,50,30.23,30.16,30.10,10,10,10,18,10,23,0.00,4,,169
2013-3-29,73,66,60,59,55,54,88,69,50,30.17,30.12,30.06,10,10,10,22,12,25,0.01,6,Rain-Thunderstorm,180
2013-3-30,77,65,53,63,59,54,100,81,57,30.05,29.98,29.89,10,10,7,24,9,30,0.16,4,Rain-Thunderstorm,211
2013-3-31,71,63,53,61,53,43,100,72,35,30.01,29.94,29.82,10,10,1,25,8,37,0.38,2,Rain-Thunderstorm,25